Weather History for PAJZ - December, 2013

Change the Weather History Date:

Friday, December 13, 2013

  Actual Average Record
Temperature  
Mean Temperature 0 °F -  
Max Temperature 1 °F - - ()
Min Temperature -2 °F - - ()
Degree Days  
Heating Degree Days 66    
Moisture  
Dew Point -9 °F    
Average Humidity 69    
Maximum Humidity 72    
Minimum Humidity 66    
Precipitation  
Precipitation 0.00 in - - ()
Sea Level Pressure  
Sea Level Pressure 29.43 in    
Wind  
Wind Speed 19 mph (North)    
Max Wind Speed 26 mph    
Max Gust Speed 29 mph    
Visibility 10 miles    
Events      
T = Trace of Precipitation, MM = Missing Value Source: NWS Daily Summary

Daily Weather History Graph

Daily Weather History Graph

Search for Another Location

Airport or City:

Trip Planner

Search our weather history database for the weather conditions in past years. The results will help you decide how hot, cold, wet, or windy it might be!

Date:

Astronomy

Dec. 13, 2013 Rise Set
Actual Time 10:22 AM AKST 4:24 PM AKST
Civil Twilight 9:25 AM AKST 5:21 PM AKST
Nautical Twilight 8:29 AM AKST 6:17 PM AKST
Astronomical Twilight 7:38 AM AKST 7:08 PM AKST
Moon 2:53 PM AKST (12/13) 6:13 AM AKST (12/13)
Length of Visible Light 7h 55m
Length of Day
6h 02m
Waxing Gibbous, 89% of the Moon is Illuminated
Dec 13
Waxing Gibbous
Dec 17
Full
Dec 25
Last Quarter
Jan 1
New
Jan 7
First Quarter

Hourly Weather History & Observations

Time (AKST) Temp. Windchill Dew Point Humidity Pressure Visibility Wind Dir Wind Speed Gust Speed Precip Events Conditions
12:56 AM 1.0 °F -19.9 °F -6.0 °F 72% 29.59 in 10.0 mi North 18.4 mph 23.0 mph N/A   Overcast
1:56 AM 0.1 °F -22.1 °F -6.9 °F 72% 29.57 in 10.0 mi NNE 20.7 mph 25.3 mph N/A   Overcast
2:56 AM -0.4 °F -22.3 °F -7.6 °F 72% 29.58 in 10.0 mi North 19.6 mph 25.3 mph N/A   Mostly Cloudy
3:56 AM -0.9 °F -23.0 °F -8.0 °F 72% 29.55 in 10.0 mi North 19.6 mph 27.6 mph N/A   Mostly Cloudy
4:56 AM -1.8 °F -21.7 °F -8.9 °F 72% 29.55 in 10.0 mi North 15.0 mph - N/A   Partly Cloudy
5:56 AM -2.2 °F -24.7 °F -9.4 °F 71% 29.55 in 10.0 mi North 19.6 mph 27.6 mph N/A   Scattered Clouds
6:56 AM -0.9 °F -22.4 °F -8.0 °F 72% 29.52 in 10.0 mi North 18.4 mph - N/A   Scattered Clouds
7:56 AM -0.9 °F -23.5 °F -8.9 °F 69% 29.51 in 10.0 mi North 20.7 mph 28.8 mph N/A   Scattered Clouds
8:56 AM -2.2 °F -24.1 °F -9.4 °F 71% 29.51 in 10.0 mi North 18.4 mph 25.3 mph N/A   Mostly Cloudy
9:56 AM -1.8 °F -22.4 °F -9.9 °F 68% 29.49 in 10.0 mi NNE 16.1 mph 26.5 mph N/A   Clear
10:56 AM -2.9 °F -23.1 °F -9.9 °F 72% 29.48 in 10.0 mi North 15.0 mph 23.0 mph N/A   Clear
11:56 AM -2.2 °F -22.9 °F -9.4 °F 71% 29.48 in 10.0 mi North 16.1 mph - N/A   Clear
12:56 PM -1.8 °F -24.2 °F -9.9 °F 68% 29.44 in 10.0 mi North 19.6 mph - N/A   Clear
1:56 PM -0.9 °F -23.5 °F -9.9 °F 66% 29.41 in 10.0 mi North 20.7 mph 26.5 mph N/A   Clear
2:56 PM -0.4 °F -22.3 °F -9.4 °F 66% 29.40 in 10.0 mi North 19.6 mph 26.5 mph N/A   Clear
3:56 PM -0.9 °F -22.4 °F -9.9 °F 66% 29.36 in 10.0 mi North 18.4 mph 25.3 mph N/A   Partly Cloudy
4:56 PM -1.8 °F -24.2 °F -9.9 °F 68% 29.34 in 10.0 mi North 19.6 mph 25.3 mph N/A   Overcast
5:56 PM -2.2 °F -25.2 °F -11.2 °F 66% 29.34 in 10.0 mi North 20.7 mph 27.6 mph N/A   Clear
6:56 PM -1.8 °F -25.7 °F -10.8 °F 66% 29.31 in 10.0 mi North 23.0 mph 28.8 mph N/A   Overcast
7:56 PM -1.8 °F -24.2 °F -10.8 °F 66% 29.30 in 10.0 mi North 19.6 mph - N/A   Overcast
8:56 PM -0.4 °F -22.3 °F -9.4 °F 66% 29.30 in 10.0 mi North 19.6 mph - N/A   Overcast
9:56 PM -0.9 °F -23.5 °F -9.9 °F 66% 29.28 in 10.0 mi North 20.7 mph 26.5 mph N/A   Mostly Cloudy
10:56 PM -0.9 °F -25.9 °F -9.9 °F 66% 29.27 in 10.0 mi North 26.5 mph - N/A   Mostly Cloudy
11:56 PM -0.4 °F -21.2 °F -9.4 °F 66% 29.28 in 10.0 mi North 17.3 mph 23.0 mph N/A   Scattered Clouds